Location: Beutels
(47.8767°N, 9.8584°E)
Time: 10:49:06
(UTC+00:00)

COBE Rocket - Pass Details

Date: 19 May 2025
Orbit: 676 x 773 km, 97.1° (Epoch: 23 June)

Event Time Altitude Azimuth Distance (km) Brightness Sun altitude
Rises 21:51:15 0° 11° (N) 3,231 8.2 -19.5°
Reaches altitude 10° 21:53:34 10° 11° (N) 2,311 7.3 -19.6°
Maximum altitude 21:58:41 85° 283° (WNW) 781 4.0 -19.9°
Enters shadow 22:01:01 34° 198° (SSW) 1,262 4.7 -20.0°
